Weather History for Jujuy, Argentina

Change the Weather History Date:

Saturday, February 2, 2013

  Actual Average Record
Temperature  
Mean Temperature 83 °F -  
Max Temperature 99 °F 81 °F 99 °F (2013)
Min Temperature 67 °F 62 °F 55 °F (2005)
Cooling Degree Days 18    
Growing Degree Days 33 (Base 50)    
Moisture  
Dew Point 64 °F    
Average Humidity 54    
Maximum Humidity 78    
Minimum Humidity 22    
Precipitation  
Precipitation 0.00 in - - ()
Sea Level Pressure  
Sea Level Pressure 29.88 in    
Wind  
Wind Speed 8 mph ()    
Max Wind Speed 21 mph    
Max Gust Speed -    
Visibility 6.0 miles    
Events Rain , Thunderstorm    
Averages and records for this station are not official NWS values.
T = Trace of Precipitation, MM = Missing Value Source: Averaged Metar Reports

Daily Weather History Graph

Daily Weather History Graph

Search for Another Location

Airport:

Trip Planner

Search our weather history database for the weather conditions in past years. The results will help you decide how hot, cold, wet, or windy it might be!

Date:

Astronomy

Feb. 02, 2013 Rise Set
Actual Time 6:58 AM ART 8:08 PM ART
Civil Twilight 6:34 AM ART 8:33 PM ART
Nautical Twilight 6:06 AM ART 9:01 PM ART
Astronomical Twilight 5:36 AM ART 9:31 PM ART
Moon No Moon Rise 12:51 PM ART (2/2)
Length of Visible Light 13h 58m
Length of Day
13h 10m
Waning Gibbous, 61% of the Moon is Illuminated
Feb 2
Waning Gibbous
Feb 3
Last Quarter
Feb 10
New
Feb 17
First Quarter
Feb 25
Full

Hourly Weather History & Observations

Time (ART) Temp. Heat Index Dew Point Humidity Pressure Visibility Wind Dir Wind Speed Gust Speed Precip Events Conditions
12:00 AM 77.0 °F - 66.2 °F 69% 29.83 in - West 12.7 mph - N/A   Clear
3:00 AM 76 °F - 62 °F 53%  in 7 mi West 9.2 mph - -  
5:00 AM 71.6 °F - 62.6 °F 73% 29.80 in - NW 5.8 mph - N/A   Clear
6:00 AM 69.8 °F - 60.8 °F 73% 29.83 in - NW 6.9 mph - N/A   Clear
7:00 AM 68.0 °F - 60.8 °F 78% 29.83 in - NW 5.8 mph - N/A   Clear
8:00 AM 71.6 °F - 60.8 °F 69% 29.86 in - NW 6.9 mph - N/A   Clear
9:00 AM 79 °F - 62 °F 47%  in 7 mi WNW 6.9 mph - -  
9:00 AM 78.8 °F - 62.6 °F 57% 29.86 in - WNW 6.9 mph - N/A   Clear
10:00 AM 86.0 °F 86.6 °F 62.6 °F 45% 29.86 in - NW 4.6 mph - N/A   Clear
11:00 AM 91.4 °F 92.1 °F 62.6 °F 38% 29.86 in - East 9.2 mph - N/A   Clear
12:00 PM 91.4 °F 92.1 °F 62.6 °F 38% 29.89 in 6.2 mi South 6.9 mph - N/A   Partly Cloudy
1:00 PM 95.0 °F 97.0 °F 64.4 °F 36% 29.86 in 6.2 mi East 4.6 mph - N/A   Partly Cloudy
2:00 PM 96.8 °F 98.0 °F 62.6 °F 32% 29.86 in 6.2 mi Calm Calm - N/A   Partly Cloudy
3:00 PM 96 °F - 61 °F 22%  in 7 mi West 6.9 mph - -   Partly Cloudy
3:00 PM 96.8 °F 97.1 °F 60.8 °F 30% 29.83 in 6.2 mi West 6.9 mph - N/A   Partly Cloudy
4:00 PM 89.6 °F 92.2 °F 66.2 °F 46% 29.86 in 5.0 mi East 11.5 mph - N/A Thunderstorm Thunderstorm
5:00 PM 87.8 °F 87.6 °F 60.8 °F 40% 29.86 in 6.2 mi SW 4.6 mph - N/A   Partly Cloudy
6:00 PM 87.8 °F 90.4 °F 66.2 °F 49% 29.89 in 6.2 mi SW 11.5 mph - N/A   Partly Cloudy
6:15 PM 86.0 °F 89.4 °F 68.0 °F 55% 29.89 in 3.7 mi SW 16.1 mph - N/A   Widespread Dust
7:00 PM 84.2 °F 86.6 °F 66.2 °F 55% 29.89 in 4.3 mi South 18.4 mph - N/A Rain Rain
8:00 PM 80.6 °F 82.7 °F 66.2 °F 61% 29.95 in 5.0 mi SSW 20.7 mph - N/A   Widespread Dust
9:00 PM 77 °F - 67 °F 65%  in 7 mi SSW 11.5 mph - - Thunderstorm Light Thunderstorm
9:00 PM 77.0 °F - 68.0 °F 74% 29.98 in 6.2 mi SSW 11.5 mph - N/A   Scattered Clouds
10:00 PM 77.0 °F - 66.2 °F 69% 30.01 in 6.2 mi South 9.2 mph - N/A   Mostly Cloudy
11:00 PM 77.0 °F - 66.2 °F 69% 30.04 in 6.2 mi South 6.9 mph - N/A   Mostly Cloudy